Le nostre stazioni meteo in Italia

Pubblicità
Il mio iltempo24.it
Torino Venaria, Italia (16060): Temperatura & dewpoint: 19.06.2019 20:00:00 - 25.06.2019 20:00:00 (CEST)Torino Venaria, Italia (16060): velocità del vento: 19.06.2019 20:00:00 - 25.06.2019 20:00:00 (CEST)Torino Venaria, Italia (16060): direzione del vento: 19.06.2019 20:00:00 - 25.06.2019 20:00:00 (CEST)Torino Venaria, Italia (16060): reduced air pressure: 19.06.2019 20:00:00 - 25.06.2019 20:00:00 (CEST)
Data & Tempo tt [°C] td [°C] ff [km/h] ff [kn] dd ppp [hPa]
25.06.2019 20:00:00 - - - - - -
25.06.2019 19:00:00 31,1 19,1 4 2 ENE 1017,5
25.06.2019 18:00:00 31,5 20,4 4 2 NNE 1017,4
25.06.2019 17:00:00 31,0 19,0 5 3 NE 1017,6
25.06.2019 16:00:00 30,7 18,4 4 2 N 1017,8
25.06.2019 15:00:00 30,5 18,5 8 4 NE 1018,0
25.06.2019 14:00:00 29,9 18,9 5 3 O 1018,3
25.06.2019 13:00:00 29,2 18,6 4 2 E 1018,7
25.06.2019 12:00:00 28,0 17,5 5 3 NE 1019,1
25.06.2019 11:00:00 26,8 18,8 4 2 N 1019,2
25.06.2019 10:00:00 25,4 19,7 5 3 E 1019,4
25.06.2019 09:00:00 22,7 22,5 2 1 SSO 1019,8
25.06.2019 08:00:00 19,8 19,7 2 1 NO 1019,9
25.06.2019 07:00:00 15,3 15,2 4 2 NO 1020,1
25.06.2019 06:00:00 14,6 14,5 5 3 ONO 1019,8
25.06.2019 05:00:00 14,9 14,7 0 0 N 1019,4
25.06.2019 04:00:00 15,5 15,0 2 1 ONO 1019,4
25.06.2019 03:00:00 16,5 15,6 0 0 N 1019,4
25.06.2019 02:00:00 18,4 17,5 4 2 NO 1019,2
25.06.2019 01:00:00 20,4 18,8 2 1 NO 1018,7
25.06.2019 00:00:00 21,2 19,1 0 0 N 1018,2
24.06.2019 23:00:00 21,9 19,0 4 2 NO 1017,8
24.06.2019 22:00:00 24,0 17,9 5 3 NO 1017,0
24.06.2019 21:00:00 26,8 17,5 4 2 NNE 1016,1
24.06.2019 20:00:00 28,3 17,1 4 2 NE 1015,5
24.06.2019 19:00:00 28,8 17,9 5 3 ENE 1015,1
24.06.2019 18:00:00 29,0 17,2 8 4 NNE 1014,8
24.06.2019 17:00:00 29,2 18,0 4 2 NO 1014,9
24.06.2019 16:00:00 29,2 17,7 8 4 NO 1014,9
24.06.2019 15:00:00 29,1 17,9 8 4 NE 1014,9
24.06.2019 14:00:00 28,3 17,1 4 2 O 1015,3
24.06.2019 13:00:00 27,9 17,4 5 3 NO 1015,4
24.06.2019 12:00:00 26,2 15,8 4 2 E 1015,9
24.06.2019 11:00:00 25,2 16,0 5 3 E 1016,2
24.06.2019 10:00:00 24,0 16,7 4 2 ENE 1016,6
24.06.2019 09:00:00 21,2 18,7 2 1 O 1016,7
24.06.2019 08:00:00 18,2 18,1 4 2 ONO 1016,7
24.06.2019 07:00:00 15,2 15,1 4 2 ONO 1016,7
24.06.2019 06:00:00 13,8 13,4 2 1 ONO 1016,5
24.06.2019 05:00:00 15,0 14,6 4 2 NO 1016,1
24.06.2019 04:00:00 15,5 15,1 5 3 ONO 1016,1
24.06.2019 03:00:00 15,8 14,9 4 2 NNO 1016,1
24.06.2019 02:00:00 16,9 15,4 0 0 N 1015,8
24.06.2019 01:00:00 17,5 15,4 2 1 NO 1015,5
24.06.2019 00:00:00 18,1 14,9 5 3 ONO 1014,9
23.06.2019 23:00:00 19,9 15,7 5 3 ONO 1014,0
23.06.2019 22:00:00 21,4 15,2 4 2 NO 1013,0
23.06.2019 21:00:00 23,2 14,1 8 4 OSO 1012,3
23.06.2019 20:00:00 26,1 13,2 5 3 NO 1011,8
23.06.2019 19:00:00 26,6 12,9 4 2 N 1011,4
23.06.2019 18:00:00 26,7 12,7 5 3 OSO 1011,4
23.06.2019 17:00:00 26,4 13,1 8 4 SO 1011,6
23.06.2019 16:00:00 25,6 13,4 9 5 O 1011,7
23.06.2019 15:00:00 24,9 12,8 9 5 SSO 1012,1
23.06.2019 14:00:00 23,8 14,4 5 3 SSO 1012,0
23.06.2019 13:00:00 22,8 13,5 8 4 O 1012,4
23.06.2019 12:00:00 22,1 14,1 4 2 N 1012,4
23.06.2019 11:00:00 20,8 13,9 4 2 SSO 1012,4
23.06.2019 10:00:00 19,5 15,7 2 1 OSO 1012,6
23.06.2019 09:00:00 16,3 15,3 4 2 SSO 1012,8
23.06.2019 08:00:00 12,9 12,8 2 1 O 1013,1
23.06.2019 07:00:00 10,4 10,4 4 2 ONO 1013,3
23.06.2019 06:00:00 9,0 9,0 4 2 O 1013,4
23.06.2019 05:00:00 9,4 9,4 4 2 O 1013,2
23.06.2019 04:00:00 10,5 10,5 0 0 N 1013,4
23.06.2019 03:00:00 10,7 10,5 0 0 N 1013,5
23.06.2019 02:00:00 11,7 11,4 2 1 ONO 1013,5
23.06.2019 01:00:00 12,6 12,1 2 1 NO 1013,6
23.06.2019 00:00:00 13,7 12,6 2 1 NO 1013,7
22.06.2019 23:00:00 15,1 13,6 4 2 O 1013,6
22.06.2019 22:00:00 18,1 14,9 2 1 NO 1012,7
22.06.2019 21:00:00 20,5 15,2 2 1 NNO 1012,0
22.06.2019 20:00:00 21,2 14,7 9 5 NE 1011,7
22.06.2019 19:00:00 22,2 14,0 8 4 NNE 1011,8
22.06.2019 18:00:00 22,2 15,7 5 3 S 1012,2
22.06.2019 17:00:00 20,9 14,2 4 2 ENE 1012,8
22.06.2019 16:00:00 20,7 16,0 8 4 ESE 1013,0
22.06.2019 15:00:00 20,5 14,3 9 5 ENE 1012,7
22.06.2019 14:00:00 21,5 13,3 15 8 NE 1012,6
22.06.2019 13:00:00 22,4 15,7 18 10 ENE 1012,3
22.06.2019 12:00:00 22,2 13,7 15 8 ENE 1012,5
22.06.2019 11:00:00 21,7 14,5 4 2 N 1011,8
22.06.2019 10:00:00 20,0 16,6 8 4 NO 1012,0
22.06.2019 09:00:00 18,8 18,1 11 6 ENE 1012,2
22.06.2019 08:00:00 15,0 14,9 5 3 NNO 1012,8
22.06.2019 07:00:00 13,4 13,3 4 2 ENE 1012,8
22.06.2019 06:00:00 12,9 12,8 4 2 NO 1012,5
22.06.2019 05:00:00 13,4 13,3 2 1 SSE 1012,9
22.06.2019 04:00:00 13,3 13,2 2 1 NO 1013,6
22.06.2019 03:00:00 14,4 14,3 4 2 ONO 1013,9
22.06.2019 02:00:00 14,9 14,8 4 2 NO 1014,4
22.06.2019 01:00:00 16,9 16,8 0 0 N 1014,0
22.06.2019 00:00:00 17,4 17,3 4 2 ONO 1014,1
21.06.2019 23:00:00 18,0 17,9 2 1 E 1014,0
21.06.2019 22:00:00 17,6 17,5 4 2 SO 1013,9
21.06.2019 21:00:00 18,3 18,2 4 2 O 1013,6
21.06.2019 20:00:00 18,8 18,7 9 5 OSO 1013,2
21.06.2019 19:00:00 19,7 19,6 4 2 ONO 1012,9
21.06.2019 18:00:00 17,6 17,5 2 1 NE 1012,9
21.06.2019 17:00:00 16,7 15,8 5 3 E 1013,5
21.06.2019 16:00:00 18,0 14,4 15 8 SSE 1013,8
21.06.2019 15:00:00 24,1 13,5 13 7 NNE 1012,0
21.06.2019 14:00:00 24,3 14,6 8 4 E 1012,4
21.06.2019 13:00:00 23,8 15,0 8 4 E 1012,5
21.06.2019 12:00:00 22,4 15,2 9 5 NE 1012,8
21.06.2019 11:00:00 21,5 18,0 5 3 NNE 1012,8
21.06.2019 10:00:00 19,8 18,7 4 2 NNE 1013,0
21.06.2019 09:00:00 18,9 18,8 2 1 NO 1013,1
21.06.2019 08:00:00 17,5 17,4 4 2 SSO 1012,7
21.06.2019 07:00:00 16,7 16,6 5 3 NNE 1012,2
21.06.2019 06:00:00 16,4 16,3 8 4 N 1011,9
21.06.2019 05:00:00 16,0 15,9 4 2 ONO 1012,1
21.06.2019 04:00:00 16,5 16,4 4 2 NNO 1011,8
21.06.2019 03:00:00 16,4 16,3 0 0 N 1011,8
21.06.2019 02:00:00 16,7 16,6 5 3 ONO 1011,7
21.06.2019 01:00:00 - - - - - -
21.06.2019 00:00:00 - - - - - -
20.06.2019 23:00:00 18,6 18,4 5 3 S 1011,0
20.06.2019 22:00:00 - - - - - -
20.06.2019 21:00:00 - - - - - -
20.06.2019 20:00:00 19,1 16,8 4 2 N 1010,3
20.06.2019 19:00:00 19,2 13,7 9 5 NNO 1009,9
20.06.2019 18:00:00 23,9 15,3 15 8 E 1008,8
20.06.2019 17:00:00 25,8 15,7 15 8 NNE 1008,2
20.06.2019 16:00:00 26,4 16,6 13 7 N 1008,1
20.06.2019 15:00:00 26,3 16,8 11 6 N 1008,3
20.06.2019 14:00:00 26,0 15,0 9 5 NE 1008,7
20.06.2019 13:00:00 25,4 15,6 8 4 ENE 1009,2
20.06.2019 12:00:00 24,7 15,0 5 3 ENE 1009,1
20.06.2019 11:00:00 23,5 15,5 8 4 ENE 1009,2
20.06.2019 10:00:00 22,1 15,4 5 3 E 1009,9
20.06.2019 09:00:00 20,3 16,1 4 2 OSO 1010,1
20.06.2019 08:00:00 18,0 17,9 4 2 O 1010,3
20.06.2019 07:00:00 14,1 14,0 5 3 NO 1010,8
20.06.2019 06:00:00 12,7 12,7 4 2 ONO 1010,8
20.06.2019 05:00:00 13,0 12,8 4 2 O 1010,3
20.06.2019 04:00:00 12,9 12,4 2 1 O 1010,2
20.06.2019 03:00:00 13,8 13,4 4 2 NO 1010,1
20.06.2019 02:00:00 14,5 13,5 4 2 NO 1010,2
20.06.2019 01:00:00 17,1 14,7 0 0 N 1010,0
20.06.2019 00:00:00 19,2 13,9 4 2 ONO 1009,8
19.06.2019 23:00:00 20,4 13,5 4 2 N 1009,5
19.06.2019 22:00:00 23,1 14,0 4 2 E 1008,7
19.06.2019 21:00:00 25,0 14,7 4 2 NNE 1008,0
19.06.2019 20:00:00 26,2 14,6 11 6 NNE 1007,9

tt = Temperatura
td = dewpoint
ff = velocità del vento
dd = direzione del vento
ppp = reduced air pressure

Stazioni seguenti

WeatherPro
AMSI
MeteoEarth